PEGASUS DEB, 25442

Orbit data source: Space-Track

PEGASUS DEB, 25442 is space debris in LEO originally from a launch on Thu, 19 May 1994 UTC launched from the Air Force Western Test Range (AFWTR). Debris objects in space refer to the collection of defunct objects orbiting the Earth. Examples of debris include non-operational satellites, rocket bodies, and fragments generated from explosions, collisions, or faulty payload assembly.

Loading next visibility...
Identifier
25442, 1994-029ADX
Orbit
LEO
Country
Flag of USUS
Related business
Manufacturer
Unknown
Mission
Spacecraft
Bus & Motor
Unknown
Mass
Unknown
Launch date (UTC)
1994-05-19 (32 years ago)
Launch vehicle
Unknown
Launch site
Air Force Western Test Range (AFWTR)
Object type
Payload
Rocket body
Debris
Shape & HBR
Unknown shape, 0.1 m
Radar Cross Section
Small (<0.1 m²)

Expand to show TLE details & history
Last TLE update: 2 days ago

TLE from 2 days ago
0 PEGASUS DEB
1 25442U 94029ADX 26235.02112706  .00004608  00000-0  66189-3 0  9999
2 25442  81.7477 253.8719 0198550  57.5132 304.5089 14.63603432562104
Epoch: 2026-08-23T00:30Z
TLE epoch observation values (Epoch: 2026-08-23T00:30:25.377Z)
Latitude
-0.00003°
Longitude
-85.05701°
Altitude
607.046 km
Speed
7.597 km/s
True Right ascension
16h 55m 29s
True Declination
0° 00' 00"
Sunlit
Object was in daylight at epoch
Visualization orbit readout
Latitude
Unknown
Longitude
Unknown
Altitude
Unknown
Speed
Unknown
Apparent Right ascension
Unknown
Apparent Declination
Unknown
Sunlit
N/A
Visualization observer readout
Local Sidereal Time
12:33:15
Azimuth
Unknown
Elevation
Unknown
Doppler factor
Unknown
Orbital elements
Apogee altitude
818.752 km
Perigee altitude
538.527 km
Semi-major axis
7,056.777 km
Eccentricity
0.01986
Inclination
81.7477°
RAAN
253.8719°
Arg. of periapsis
57.5132°
True anomaly
302.60766°
Mean anomaly
304.5089°
Eccentric anomaly
303.56093°
Mean motion
3.66129 °/min
Orbital period
98.33 mins
BSTAR
0.00066189
Loading maneuver chart data...
Computing Atmospheric mass density...

Documentation

Showing up to 5 results
|